Hourly Weather Gan Yavne

Today, 13 August, Thursday

Time Temperature Precipitation Wind Pressure Humidity
00:00 +25°C° 0 mm 1 mps 752 mmHg 87%
01:00 +25°C° 0 mm 1 mps 752 mmHg 87%
02:00 +25°C° 0 mm 1 mps 752 mmHg 88%
03:00 +25°C° 0 mm 1 mps 752 mmHg 88%
04:00 +25°C° 0 mm 2 mps 752 mmHg 88%
05:00 +25°C° 0 mm 2 mps 752 mmHg 89%
06:00 +26°C° 0 mm 2 mps 752 mmHg 82%
07:00 +28°C° 0 mm 2 mps 752 mmHg 74%
08:00 +30°C° 0 mm 2 mps 752 mmHg 67%
09:00 +31°C° 0 mm 2 mps 752 mmHg 60%
10:00 +34°C° 0 mm 3 mps 752 mmHg 53%
11:00 +35°C° 0 mm 4 mps 751 mmHg 46%
12:00 +35°C° 0 mm 5 mps 751 mmHg 47%
13:00 +35°C° 0 mm 5 mps 751 mmHg 47%
14:00 +35°C° 0 mm 5 mps 750 mmHg 47%
15:00 +34°C° 0 mm 5 mps 750 mmHg 51%
16:00 +34°C° 0 mm 5 mps 750 mmHg 55%
17:00 +33°C° 0 mm 5 mps 750 mmHg 60%
18:00 +30°C° 0 mm 4 mps 750 mmHg 68%
19:00 +28°C° 0 mm 3 mps 750 mmHg 76%
20:00 +27°C° 0 mm 2 mps 751 mmHg 85%
21:00 +26°C° 0 mm 2 mps 751 mmHg 86%
22:00 +26°C° 0 mm 1 mps 751 mmHg 86%
23:00 +25°C° 0 mm 1 mps 751 mmHg 87%

Tomorrow, 14 August, Friday

Time Temperature Precipitation Wind Pressure Humidity
00:00 +25°C° 0 mm 1 mps 751 mmHg 87%
01:00 +25°C° 0 mm 1 mps 751 mmHg 88%
02:00 +24°C° 0 mm 1 mps 750 mmHg 88%
03:00 +24°C° 0 mm 1 mps 750 mmHg 89%
04:00 +24°C° 0 mm 1 mps 750 mmHg 89%
05:00 +24°C° 0 mm 2 mps 750 mmHg 90%
06:00 +26°C° 0 mm 2 mps 751 mmHg 82%
07:00 +28°C° 0 mm 2 mps 751 mmHg 73%
08:00 +30°C° 0 mm 2 mps 751 mmHg 65%
09:00 +33°C° 0 mm 3 mps 750 mmHg 57%
10:00 +34°C° 0 mm 4 mps 750 mmHg 50%
11:00 +36°C° 0 mm 5 mps 750 mmHg 42%
12:00 +36°C° 0 mm 5 mps 750 mmHg 42%
13:00 +36°C° 0 mm 5 mps 749 mmHg 43%
14:00 +36°C° 0 mm 5 mps 749 mmHg 43%
15:00 +35°C° 0 mm 5 mps 749 mmHg 47%
16:00 +34°C° 0 mm 4 mps 749 mmHg 50%
17:00 +33°C° 0 mm 4 mps 749 mmHg 54%
18:00 +30°C° 0 mm 3 mps 749 mmHg 64%
19:00 +28°C° 0 mm 2 mps 749 mmHg 74%
20:00 +26°C° 0 mm 1 mps 750 mmHg 83%
21:00 +26°C° 0 mm 1 mps 749 mmHg 83%
22:00 +25°C° 0 mm 1 mps 749 mmHg 84%
23:00 +25°C° 0 mm 1 mps 749 mmHg 84%

Day after tomorrow, 15 August, Saturday

Time Temperature Precipitation Wind Pressure Humidity
00:00 +25°C° 0 mm 1 mps 749 mmHg 84%
01:00 +25°C° 0 mm 1 mps 749 mmHg 85%
02:00 +24°C° 0 mm 1 mps 749 mmHg 85%
03:00 +25°C° 0 mm 2 mps 749 mmHg 86%
04:00 +25°C° 0 mm 2 mps 749 mmHg 86%
05:00 +25°C° 0 mm 3 mps 749 mmHg 87%
06:00 +27°C° 0 mm 3 mps 749 mmHg 80%
07:00 +29°C° 0 mm 3 mps 749 mmHg 72%
08:00 +30°C° 0 mm 4 mps 749 mmHg 65%
09:00 +33°C° 0 mm 4 mps 749 mmHg 58%
10:00 +35°C° 0 mm 4 mps 749 mmHg 52%
11:00 +36°C° 0 mm 5 mps 749 mmHg 45%
12:00 +36°C° 0 mm 5 mps 749 mmHg 45%
13:00 +36°C° 0 mm 5 mps 749 mmHg 45%
14:00 +36°C° 0 mm 5 mps 748 mmHg 46%
15:00 +35°C° 0 mm 5 mps 748 mmHg 49%
16:00 +34°C° 0 mm 4 mps 748 mmHg 53%
17:00 +34°C° 0 mm 4 mps 748 mmHg 57%
18:00 +30°C° 0 mm 3 mps 748 mmHg 67%
19:00 +28°C° 0 mm 2 mps 749 mmHg 77%
20:00 +26°C° 0 mm 1 mps 749 mmHg 87%
21:00 +26°C° 0 mm 1 mps 749 mmHg 86%
22:00 +25°C° 0 mm 1 mps 749 mmHg 85%
23:00 +25°C° 0 mm 1 mps 749 mmHg 85%

16 August, Sunday

Time Temperature Precipitation Wind Pressure Humidity
00:00 +25°C° 0 mm 1 mps 749 mmHg 86%
01:00 +24°C° 0 mm 1 mps 748 mmHg 86%
02:00 +24°C° 0 mm 1 mps 748 mmHg 87%
03:00 +24°C° 0 mm 1 mps 748 mmHg 87%
04:00 +24°C° 0 mm 2 mps 748 mmHg 87%
05:00 +24°C° 0 mm 2 mps 748 mmHg 87%
06:00 +26°C° 0 mm 2 mps 749 mmHg 79%
07:00 +28°C° 0 mm 3 mps 749 mmHg 70%
08:00 +30°C° 0 mm 3 mps 750 mmHg 61%
09:00 +33°C° 0 mm 3 mps 750 mmHg 52%
10:00 +35°C° 0 mm 4 mps 750 mmHg 43%
11:00 +37°C° 0 mm 4 mps 750 mmHg 35%
12:00 +37°C° 0 mm 5 mps 749 mmHg 36%
13:00 +37°C° 0 mm 5 mps 749 mmHg 36%
14:00 +38°C° 0 mm 6 mps 749 mmHg 37%
15:00 +36°C° 0 mm 5 mps 749 mmHg 39%
16:00 +35°C° 0 mm 5 mps 749 mmHg 42%
17:00 +34°C° 0 mm 4 mps 749 mmHg 45%
18:00 +31°C° 0 mm 3 mps 749 mmHg 55%
19:00 +28°C° 0 mm 2 mps 750 mmHg 66%
20:00 +26°C° 0 mm 1 mps 750 mmHg 77%
21:00 +26°C° 0 mm 1 mps 750 mmHg 75%
22:00 +25°C° 0 mm 1 mps 750 mmHg 73%
23:00 +25°C° 0 mm 1 mps 750 mmHg 72%

17 August, Monday

Time Temperature Precipitation Wind Pressure Humidity
00:00 +24°C° 0 mm 1 mps 750 mmHg 72%
01:00 +24°C° 0 mm 1 mps 749 mmHg 71%
02:00 +21°C° 0 mm 0 mps 749 mmHg 71%
03:00 +23°C° 0 mm 1 mps 749 mmHg 73%
04:00 +23°C° 0 mm 1 mps 750 mmHg 76%
05:00 +23°C° 0 mm 1 mps 750 mmHg 78%
06:00 +25°C° 0 mm 2 mps 750 mmHg 71%
07:00 +28°C° 0 mm 2 mps 750 mmHg 63%
08:00 +30°C° 0 mm 2 mps 751 mmHg 56%
09:00 +33°C° 0 mm 3 mps 750 mmHg 50%
10:00 +35°C° 0 mm 3 mps 750 mmHg 44%
11:00 +36°C° 0 mm 4 mps 750 mmHg 38%
12:00 +36°C° 0 mm 4 mps 750 mmHg 40%
13:00 +36°C° 0 mm 5 mps 750 mmHg 43%
14:00 +36°C° 0 mm 5 mps 749 mmHg 45%
15:00 +35°C° 0 mm 5 mps 749 mmHg 48%
16:00 +34°C° 0 mm 5 mps 749 mmHg 51%
17:00 +33°C° 0 mm 4 mps 749 mmHg 53%
18:00 +30°C° 0 mm 3 mps 749 mmHg 61%
19:00 +28°C° 0 mm 3 mps 750 mmHg 69%
20:00 +26°C° 0 mm 2 mps 750 mmHg 78%
21:00 +25°C° 0 mm 2 mps 750 mmHg 77%
22:00 +25°C° 0 mm 1 mps 750 mmHg 76%
23:00 +24°C° 0 mm 1 mps 750 mmHg 75%

18 August, Tuesday

Time Temperature Precipitation Wind Pressure Humidity
00:00 +24°C° 0 mm 1 mps 750 mmHg 78%
01:00 +24°C° 0 mm 1 mps 750 mmHg 80%
02:00 +24°C° 0 mm 2 mps 750 mmHg 82%
03:00 +24°C° 0 mm 2 mps 750 mmHg 84%
04:00 +24°C° 0 mm 2 mps 750 mmHg 85%
05:00 +24°C° 0 mm 2 mps 750 mmHg 86%
06:00 +26°C° 0 mm 3 mps 750 mmHg 77%
07:00 +27°C° 0 mm 3 mps 750 mmHg 69%
08:00 +29°C° 0 mm 3 mps 751 mmHg 60%
09:00 +32°C° 0 mm 4 mps 750 mmHg 55%
10:00 +33°C° 0 mm 4 mps 750 mmHg 50%
11:00 +35°C° 0 mm 5 mps 750 mmHg 45%
12:00 +35°C° 0 mm 5 mps 750 mmHg 46%
13:00 +35°C° 0 mm 5 mps 750 mmHg 46%
14:00 +34°C° 0 mm 5 mps 749 mmHg 46%
15:00 +34°C° 0 mm 5 mps 749 mmHg 51%
16:00 +33°C° 0 mm 5 mps 749 mmHg 55%
17:00 +32°C° 0 mm 5 mps 749 mmHg 60%
18:00 +29°C° 0 mm 3 mps 749 mmHg 69%
19:00 +27°C° 0 mm 2 mps 750 mmHg 78%
20:00 +25°C° 0 mm 1 mps 750 mmHg 86%
21:00 +24°C° 0 mm 1 mps 750 mmHg 86%
22:00 +24°C° 0 mm 1 mps 750 mmHg 86%
23:00 +24°C° 0 mm 1 mps 750 mmHg 86%
Show more